Location: Newark
(7.1028°S, 35.3258°W)
Time: 01:16:57
(UTC+00:00)

Vanguard 3 - Pass Details

Date: 28 February 2020
Orbit: 508 x 3262 km, 33.3° (Epoch: 28 March)

Event Time Altitude Azimuth Distance (km) Brightness Sun altitude
Rises 22:16:00 0° 262° (W) 6,973 13.3 -24.0°
Reaches altitude 10° 22:21:39 10° 252° (WSW) 6,130 12.6 -25.4°
Maximum altitude 22:37:59 30° 197° (SSW) 4,547 11.1 -29.3°
Drops below altitude 10° 22:52:05 10° 141° (SE) 5,261 11.0 -32.7°
Enters shadow 22:54:01 - 135° (SE) 5,520 11.1 -33.2°
